YAOGAN 32 2B (49384 NORAD) Tracking and Keplerian Element Data

This shows tracking and keplerian element data for the satellite.

Feedback or suggestion? Click here.




ElementValue
Catalog49384
NameYAOGAN 32 2B
Epoch Orbit1075
Epoch Day16.0797202
Epoch Year2022
RAAN144.7278
Inclination98.099
Eccentricity0.0001238
Argument of Perigee95.1077
Mean Anonmoly265.0263
Mean Motion14.59227287
Decay Rate2.02E-06
L11 49384U 21099B 22016.07972020 .00000202 00000+0 52443-4 0 9992
L22 49384 98.0990 144.7278 0001238 95.1077 265.0263 14.59227287 10755

Live tracking and technical data element details for YAOGAN 32 2B (NORAD 49384). YAOGAN 32 2B can be tracked NOW for your location showing map with azimuth and elevation plus other details from your city location.

Track the satellite on the map from your city or location and see movement details for azimuth, elevation, latitude, longitude, range, height, and movement on the map or in text.







IsCatalogInMostPopularTable: catalog: 49384, numindb: 10
Update: records affected: 1



GetName: 49384 YAOGAN 32 2B

Hit Count: updated at: Thu, 20 Jan 2022 17:17:28 GMT